QPF
0.00 0.00 0.00 0.00 0.00 0.00 0.00 0.00 0.00 0.00 0.00 0.00 0.00 0.00 0.00 0.00 0.00 0.00 0.00 0.00 0.00 0.00 0.00 0.00 0.00 0.00 0.00 0.00 0.00 0.00 0.00 0.00 0.00 0.00 0.00 0.00 0.00 0.00 0.00 0.00 0.00 0.00 0.00 0.00 0.00
0.00 0.00 0.00 0.00 0.00 0.00 0.00 0.00 0.00 0.00 0.00 0.00 0.00 0.00 0.00 0.00 0.00 0.00 0.00 0.00 0.00 0.00 0.00 0.00 0.00 0.00 0.00 0.00 0.00 0.00 0.00 0.00 0.00 0.00 0.00 0.00 0.00 0.00 0.00 0.00 0.00 0.00 0.00 0.00 0.00
0.00 0.00 0.00 0.00 0.00 0.00 0.00 0.00 0.00 0.00 0.00 0.00 0.00 0.00 0.00 0.00 0.00 0.00 0.00 0.00 0.00 0.00 0.00 0.00 0.00 0.00 0.00 0.00 0.00 0.00 0.00 0.00 0.00 0.00 0.00 0.00 0.00 0.00 0.00 0.00 0.00 0.00 0.00 0.00 0.00
0.00 0.00 0.00 0.00 0.00 0.00 0.00 0.00 0.00 0.00 0.00 0.00 0.00 0.00 0.00 0.00 0.00 0.00 0.00 0.00 0.00 0.00 0.00 0.00 0.00 0.00 0.00 0.00 0.00 0.00 0.00 0.00 0.00 0.00 0.00 0.00 0.00 0.00 0.00 0.00 0.00 0.00 0.00 0.00 0.00
0.00 0.00 0.00 0.00 0.00 0.00 0.00 0.00 0.00 0.00 0.00 0.00 0.00 0.00 0.00 0.00 0.00 0.00 0.00 0.00 0.00 0.00 0.00 0.00 0.00 0.00 0.00 0.00 0.00 0.00 0.00 0.00 0.00 0.00 0.00 0.00 0.00 0.00 0.00 0.00 0.00 0.00 0.00 0.00 0.00
0.00 0.00 0.00 0.00 0.00 0.00 0.00 0.00 0.00 0.00 0.00 0.00 0.00 0.00 0.00 0.00 0.00 0.00 0.00 0.00 0.00 0.00 0.00 0.00 0.00 0.00 0.00 0.00 0.00 0.00 0.00 0.00 0.00 0.00 0.00 0.00 0.00 0.00 0.00 0.00 0.00 0.00 0.00 0.00 0.00
0.00 0.00 0.00 0.00 0.00 0.00 0.00 0.00 0.00 0.00 0.00 0.00 0.00 0.00 0.00 0.00 0.00 0.00 0.00 0.00 0.00 0.00 0.00 0.00 0.00 0.00 0.00 0.00 0.00 0.00 0.00 0.00 0.00 0.00 0.00 0.00 0.00 0.00 0.00 0.00 0.00 0.00 0.00 0.00 0.00
0.00 0.00 0.00 0.00 0.00 0.00 0.00 0.00 0.00 0.00 0.00 0.00 0.00 0.00 0.00 0.00 0.00 0.00 0.00 0.00 0.00 0.00 0.00 0.00 0.00 0.00 0.00 0.00 0.00 0.00 0.00 0.00 0.00 0.00 0.00 0.00 0.00 0.00 0.00 0.00 0.00 0.00 0.00 0.00 0.00
0.00 0.00 0.00 0.00 0.00 0.00 0.00 0.00 0.00 0.00 0.00 0.00 0.00 0.00 0.00 0.00 0.00 0.00 0.00 0.00 0.00 0.00 0.00 0.00 0.00 0.00 0.00 0.00 0.00 0.00 0.00 0.00 0.00 0.00 0.00 0.00 0.00 0.00 0.00 0.00 0.00 0.00 0.00 0.00 0.00
0.00 0.00 0.00 0.00 0.00 0.00 0.00 0.00 0.00 0.00 0.00 0.00 0.00 0.00 0.00 0.00 0.00 0.00 0.00 0.00 0.00 0.00 0.00 0.00 0.00 0.00 0.00 0.00 0.00 0.00 0.00 0.00 0.00 0.00 0.00 0.00 0.00 0.00 0.00 0.00 0.00 0.00 0.00 0.00 0.00
0.00 0.00 0.00 0.00 0.00 0.00 0.00 0.00 0.00 0.00 0.00 0.00 0.00 0.00 0.00 0.00 0.00 0.00 0.00 0.00 0.00 0.00 0.00 0.00 0.00 0.00 0.00 0.00 0.00 0.00 0.00 0.00 0.00 0.00 0.00 0.00 0.00 0.00 0.00 0.00 0.00 0.00 0.00 0.00 0.00
0.00 0.00 0.00 0.00 0.00 0.00 0.00 0.00 0.00 0.00 0.00 0.00 0.00 0.00 0.00 0.00 0.00 0.00 0.00 0.00 0.00 0.00 0.00 0.00 0.00 0.00 0.00 0.00 0.00 0.00 0.00 0.00 0.00 0.00 0.00 0.00 0.00 0.00 0.00 0.00 0.00 0.00 0.00 0.00 0.00
0.00 0.00 0.00 0.00 0.00 0.00 0.00 0.00 0.00 0.00 0.00 0.00 0.00 0.00 0.00 0.00 0.00 0.00 0.00 0.00 0.00 0.00 0.00 0.00 0.00 0.00 0.00 0.00 0.00 0.00 0.00 0.00 0.00 0.00 0.00 0.00 0.00 0.00 0.00 0.00 0.00 0.00 0.00 0.00 0.00
0.00 0.00 0.00 0.00 0.00 0.00 0.00 0.00 0.00 0.00 0.00 0.00 0.00 0.00 0.00 0.00 0.00 0.00 0.00 0.00 0.00 0.00 0.00 0.00 0.00 0.00 0.00 0.00 0.00 0.00 0.00 0.00 0.00 0.00 0.00 0.00 0.00 0.00 0.00 0.00 0.00 0.00 0.00 0.00 0.00
0.00 0.00 0.00 0.00 0.00 0.00 0.00 0.00 0.00 0.00 0.00 0.00 0.00 0.00 0.00 0.00 0.00 0.00 0.00 0.00 0.00 0.00 0.00 0.00 0.00 0.00 0.00 0.00 0.00 0.00 0.00 0.00 0.00 0.00 0.00 0.00 0.00 0.00 0.00 0.00 0.00 0.00 0.00 0.00 0.00
0.00 0.00 0.00 0.00 0.00 0.00 0.00 0.00 0.00 0.00 0.00 0.00 0.00 0.00 0.00 0.00 0.00 0.00 0.00 0.00 0.00 0.00 0.00 0.00 0.00 0.00 0.00 0.00 0.00 0.00 0.00 0.00 0.00 0.00 0.00 0.00 0.00 0.00 0.00 0.00 0.00 0.00 0.00 0.00 0.00
0.00 0.00 0.00 0.00 0.00 0.00 0.00 0.00 0.00 0.00 0.00 0.00 0.00 0.00 0.00 0.00 0.00 0.00 0.00 0.00 0.00 0.00 0.00 0.00 0.00 0.00 0.00 0.00 0.00 0.00 0.00 0.00 0.00 0.00 0.00 0.00 0.00 0.00 0.00 0.00 0.00 0.00 0.00 0.00 0.00
0.00 0.00 0.00 0.00 0.00 0.00 0.00 0.00 0.00 0.00 0.00 0.00 0.00 0.00 0.00 0.00 0.00 0.00 0.00 0.00 0.00 0.00 0.00 0.00 0.00 0.00 0.00 0.00 0.00 0.00 0.00 0.00 0.00 0.00 0.00 0.00 0.00 0.00 0.00 0.00 0.00 0.00 0.00 0.00 0.00
0.00 0.00 0.00 0.00 0.00 0.01 0.02 0.00 0.00 0.00 0.00 0.00 0.00 0.00 0.00 0.00 0.00 0.00 0.00 0.00 0.00 0.00 0.00 0.00 0.00 0.00 0.00 0.00 0.00 0.00 0.00 0.00 0.00 0.00 0.00 0.00 0.00 0.00 0.00 0.00 0.00 0.00 0.00 0.00 0.00
0.00 0.00 0.00 0.00 0.01 0.04 0.02 0.00 0.00 0.00 0.00 0.00 0.00 0.00 0.00 0.00 0.00 0.00 0.00 0.00 0.00 0.00 0.00 0.00 0.00 0.00 0.00 0.00 0.00 0.00 0.00 0.00 0.00 0.00 0.00 0.00 0.00 0.00 0.00 0.00 0.00 0.00 0.00 0.00 0.00
0.00 0.00 0.00 0.00 0.02 0.02 0.01 0.00 0.00 0.00 0.00 0.00 0.00 0.00 0.00 0.00 0.00 0.00 0.00 0.00 0.00 0.00 0.00 0.00 0.00 0.00 0.00 0.00 0.00 0.00 0.00 0.00 0.00 0.00 0.00 0.00 0.00 0.00 0.00 0.00 0.00 0.00 0.00 0.00 0.00
0.00 0.00 0.00 0.02 0.06 0.03 0.00 0.00 0.00 0.00 0.00 0.00 0.00 0.00 0.00 0.00 0.00 0.00 0.00 0.00 0.00 0.00 0.00 0.00 0.00 0.00 0.00 0.00 0.00 0.00 0.00 0.00 0.00 0.00 0.00 0.00 0.00 0.00 0.00 0.00 0.00 0.00 0.00 0.00 0.00
0.00 0.00 0.01 0.07 0.04 0.01 0.01 0.00 0.00 0.00 0.00 0.00 0.01 0.00 0.00 0.00 0.01 0.00 0.00 0.00 0.00 0.00 0.00 0.00 0.01 0.01 0.00 0.00 0.00 0.00 0.00 0.00 0.00 0.00 0.00 0.00 0.00 0.00 0.00 0.00 0.00 0.00 0.00 0.00 0.00
0.00 0.00 0.02 0.03 0.01 0.01 0.01 0.00 0.00 0.00 0.00 0.01 0.01 0.00 0.01 0.01 0.00 0.01 0.00 0.00 0.00 0.00 0.00 0.00 0.01 0.00 0.00 0.00 0.00 0.00 0.00 0.00 0.00 0.00 0.00 0.00 0.00 0.00 0.00 0.00 0.00 0.00 0.00 0.00 0.00
0.00 0.00 0.00 0.01 0.01 0.01 0.02 0.01 0.00 0.00 0.01 0.00 0.01 0.00 0.00 0.00 0.00 0.00 0.00 0.00 0.00 0.00 0.00 0.00 0.01 0.00 0.00 0.00 0.00 0.00 0.00 0.00 0.00 0.00 0.00 0.00 0.00 0.00 0.00 0.00 0.00 0.00 0.00 0.00 0.00
0.00 0.00 0.00 0.00 0.00 0.00 0.00 0.00 0.00 0.00 0.00 0.00 0.00 0.00 0.00 0.00 0.00 0.00 0.00 0.00 0.00 0.00 0.00 0.00 0.00 0.00 0.00 0.00 0.00 0.00 0.00 0.00 0.00 0.00 0.00 0.00 0.00 0.00 0.00 0.00 0.00 0.00 0.00 0.00 0.00
0.00 0.00 0.00 0.00 0.00 0.00 0.00 0.00 0.00 0.00 0.00 0.00 0.00 0.00 0.00 0.00 0.00 0.00 0.00 0.00 0.00 0.00 0.00 0.00 0.00 0.00 0.00 0.00 0.00 0.00 0.00 0.00 0.00 0.00 0.00 0.00 0.00 0.00 0.00 0.00 0.00 0.00 0.00 0.00 0.00
MSLP
1021.14 1020.92 1020.67 1020.31 1019.95 1019.59 1019.27 1019.00 1018.80 1018.65 1018.43 1018.09 1017.80 1017.62 1017.42 1016.98 1016.54 1016.48 1015.86 1014.17 1014.21 1014.44 1014.85 1015.18 1015.36 1015.30 1015.43 1015.81 1016.02 1016.58 1017.56 1017.34 1015.93 1014.63 1013.63 1013.10 1013.14 1012.88 1012.91 1013.24 1013.55 1013.71 1014.08 1014.49 1014.85
1021.28 1021.03 1020.77 1020.44 1020.05 1019.65 1019.28 1019.00 1018.77 1018.51 1018.32 1018.06 1017.76 1017.45 1017.27 1017.07 1016.63 1015.69 1013.72 1013.63 1013.88 1014.34 1014.90 1015.14 1015.32 1015.50 1015.87 1016.00 1016.24 1016.73 1017.38 1016.23 1014.71 1013.81 1013.36 1013.07 1013.05 1012.90 1013.14 1013.23 1013.50 1013.77 1014.27 1014.92 1015.42
1021.35 1021.05 1020.76 1020.49 1020.13 1019.70 1019.31 1018.90 1018.62 1018.45 1018.26 1017.98 1017.66 1017.41 1017.18 1017.08 1016.62 1014.32 1013.42 1013.64 1013.93 1014.25 1014.35 1014.68 1014.88 1015.30 1015.87 1015.98 1016.12 1016.36 1016.24 1015.08 1014.01 1013.47 1013.24 1013.11 1013.10 1012.91 1013.12 1013.10 1012.99 1013.24 1013.81 1015.05 1015.71
1021.27 1021.08 1020.75 1020.43 1020.06 1019.69 1019.34 1018.94 1018.53 1018.18 1018.02 1017.79 1017.49 1017.22 1017.01 1017.02 1015.99 1013.68 1013.62 1013.81 1014.06 1014.36 1014.56 1014.77 1015.08 1015.52 1015.72 1015.79 1015.40 1015.95 1015.05 1014.68 1013.88 1013.33 1013.31 1013.19 1012.93 1013.01 1012.97 1011.63 1011.64 1012.18 1013.00 1014.38 1015.11
1021.16 1021.00 1020.79 1020.47 1020.08 1019.60 1019.15 1018.81 1018.45 1018.15 1017.87 1017.63 1017.37 1017.12 1016.91 1016.74 1015.00 1013.67 1013.84 1014.10 1014.26 1014.37 1014.44 1014.74 1015.11 1015.32 1015.56 1015.35 1015.28 1015.30 1014.80 1014.29 1013.71 1013.55 1013.52 1013.34 1012.88 1013.08 1012.01 1011.28 1011.86 1012.09 1012.74 1013.34 1013.91
1021.08 1020.85 1020.66 1020.36 1019.97 1019.51 1018.98 1018.56 1018.22 1017.97 1017.70 1017.34 1017.16 1017.10 1016.97 1016.16 1013.36 1013.41 1013.78 1014.29 1014.34 1014.46 1014.45 1014.64 1014.65 1014.74 1015.18 1015.15 1015.30 1014.73 1014.42 1013.96 1013.69 1013.77 1013.68 1013.81 1012.87 1013.11 1010.29 1010.85 1011.50 1011.90 1012.05 1012.40 1012.60
1020.88 1020.69 1020.37 1020.02 1019.62 1019.18 1018.69 1018.16 1017.83 1017.59 1017.36 1017.16 1016.92 1016.94 1016.57 1014.11 1013.24 1013.70 1013.97 1014.03 1014.07 1014.30 1014.52 1014.54 1014.50 1014.79 1015.09 1015.10 1014.85 1014.85 1014.94 1014.31 1013.46 1013.35 1013.66 1013.72 1013.02 1012.34 1009.64 1011.01 1011.12 1011.37 1011.37 1011.52 1011.42
1020.67 1020.35 1020.04 1019.68 1019.26 1018.76 1018.16 1017.65 1017.14 1016.83 1016.81 1016.76 1016.55 1016.70 1015.55 1013.56 1013.51 1013.78 1014.00 1014.17 1014.27 1014.43 1014.60 1014.64 1014.66 1015.01 1015.37 1015.27 1015.29 1015.56 1015.58 1015.10 1012.93 1013.08 1013.16 1013.33 1011.90 1010.24 1009.98 1010.88 1010.72 1010.68 1010.80 1010.88 1010.34
1020.52 1020.15 1019.78 1019.46 1019.03 1018.38 1017.65 1016.83 1016.29 1015.96 1016.23 1016.41 1016.56 1016.29 1014.92 1013.68 1013.66 1013.35 1013.60 1014.01 1014.28 1014.56 1014.70 1014.82 1014.96 1015.47 1015.83 1016.30 1016.72 1016.44 1016.04 1015.40 1013.84 1012.90 1013.17 1013.23 1012.04 1009.90 1009.94 1010.48 1010.35 1010.14 1009.96 1009.87 1009.67
1020.25 1020.04 1019.62 1019.19 1018.84 1018.11 1017.17 1016.24 1016.00 1015.88 1016.14 1016.28 1016.08 1016.44 1014.26 1013.28 1013.13 1013.29 1013.41 1013.81 1014.16 1014.68 1015.17 1015.44 1016.00 1016.29 1016.51 1016.63 1016.63 1016.07 1016.33 1015.42 1014.61 1013.17 1013.31 1013.31 1011.96 1010.57 1009.95 1010.31 1010.02 1009.76 1009.19 1008.98 1008.69
1019.96 1019.74 1019.43 1018.95 1018.55 1017.96 1017.14 1016.33 1016.70 1016.76 1016.53 1015.65 1015.16 1014.23 1013.10 1012.76 1012.89 1013.16 1013.34 1013.95 1014.47 1015.01 1015.56 1015.89 1016.57 1016.27 1015.19 1015.33 1015.04 1015.55 1015.56 1015.19 1013.76 1012.69 1012.98 1012.43 1011.57 1010.89 1009.87 1009.68 1009.51 1008.88 1008.40 1007.84 1007.26
1019.75 1019.61 1019.28 1018.82 1018.47 1018.05 1017.72 1018.26 1018.96 1019.35 1017.83 1015.33 1014.58 1014.28 1012.74 1012.83 1013.09 1013.47 1013.53 1014.22 1014.72 1015.27 1015.73 1016.30 1015.40 1014.37 1014.64 1014.99 1015.54 1015.44 1015.00 1014.40 1013.46 1012.86 1013.06 1011.99 1010.39 1010.26 1009.97 1008.62 1007.56 1007.37 1006.85 1006.26 1005.76
1019.42 1019.46 1019.29 1018.60 1018.34 1018.45 1018.70 1018.94 1018.86 1019.10 1018.82 1015.38 1013.88 1013.49 1013.10 1012.94 1013.16 1013.16 1013.68 1014.11 1014.69 1015.41 1015.35 1015.19 1014.57 1014.38 1014.81 1014.76 1015.00 1014.15 1014.68 1013.66 1013.35 1013.08 1012.69 1011.97 1008.95 1009.41 1008.69 1007.40 1006.55 1005.55 1005.05 1004.77 1004.40
1019.18 1019.27 1019.18 1018.78 1018.82 1019.03 1019.01 1018.86 1018.89 1018.93 1018.44 1015.05 1013.50 1013.09 1012.95 1012.77 1013.41 1013.50 1013.73 1013.97 1014.62 1014.52 1015.04 1014.79 1013.42 1013.81 1014.14 1014.27 1013.92 1013.55 1012.86 1013.26 1013.47 1013.94 1013.17 1012.59 1007.55 1008.40 1007.98 1007.19 1005.70 1004.47 1003.95 1003.36 1003.00
1018.68 1018.83 1018.98 1018.94 1019.45 1019.20 1018.97 1018.67 1019.02 1019.33 1017.31 1014.04 1013.40 1013.22 1013.04 1013.48 1014.09 1014.15 1014.04 1014.13 1014.40 1014.50 1014.82 1013.55 1013.13 1013.31 1013.63 1012.47 1013.29 1012.08 1012.92 1013.25 1013.65 1013.93 1013.51 1012.67 1011.97 1006.74 1006.14 1006.46 1005.52 1003.56 1002.80 1002.07 1001.39
1018.04 1018.31 1018.75 1019.03 1019.39 1018.80 1018.43 1018.54 1019.01 1019.00 1016.48 1013.92 1013.46 1013.75 1013.84 1013.93 1014.08 1014.16 1014.26 1014.30 1014.54 1014.69 1014.28 1013.37 1012.89 1012.79 1012.20 1012.33 1012.58 1012.82 1012.98 1013.57 1014.40 1014.76 1013.78 1011.80 1011.47 1001.90 1005.53 1004.72 1004.02 1002.96 1001.89 1000.96 1000.50
1018.16 1017.91 1018.21 1018.10 1018.27 1018.27 1018.07 1018.43 1018.99 1017.34 1014.92 1013.98 1013.58 1013.70 1013.82 1014.03 1014.20 1014.46 1014.48 1014.73 1014.88 1014.98 1014.15 1013.12 1012.46 1011.93 1011.96 1012.74 1012.79 1012.89 1013.51 1014.65 1015.03 1015.09 1012.31 1009.84 1010.25 1003.62 1004.21 1003.47 1002.96 1002.18 1001.29 1000.44 999.95
1017.99 1017.85 1017.94 1017.78 1017.77 1017.80 1018.61 1019.18 1018.06 1015.79 1014.72 1013.52 1013.68 1013.92 1014.26 1014.19 1014.11 1014.23 1014.59 1014.71 1014.43 1014.47 1014.16 1013.71 1011.38 1011.67 1011.33 1011.68 1011.74 1012.36 1012.84 1013.73 1013.34 1012.86 1010.62 1009.91 1007.88 1003.27 1002.26 1001.56 1001.30 1000.96 1000.36 1000.21 1000.58
1017.94 1017.77 1017.66 1017.58 1017.78 1018.05 1019.00 1018.26 1016.21 1015.36 1014.35 1013.80 1013.64 1013.86 1013.94 1013.64 1014.03 1014.09 1014.28 1013.96 1013.44 1013.28 1013.55 1012.99 1011.45 1011.10 1011.15 1011.08 1011.46 1011.98 1012.23 1011.22 1012.21 1012.02 1011.22 1008.46 1005.27 1003.40 1001.72 1001.65 1001.84 1001.47 1001.29 1000.81 1000.53
1018.10 1017.77 1017.30 1016.56 1017.51 1018.18 1018.27 1015.69 1014.92 1014.58 1014.20 1013.73 1013.72 1013.71 1013.19 1013.38 1013.88 1013.95 1013.42 1012.39 1012.43 1012.10 1011.50 1011.77 1011.79 1011.10 1011.70 1012.07 1011.60 1011.48 1011.29 1011.65 1011.95 1011.63 1010.14 1007.51 1005.54 1003.16 1001.80 1001.93 1001.63 1001.94 1001.47 1000.72 1000.55
1018.47 1017.72 1016.43 1016.54 1017.27 1017.85 1016.41 1015.05 1014.33 1013.64 1014.03 1014.25 1013.55 1013.64 1013.18 1013.05 1012.96 1012.90 1012.40 1011.93 1011.60 1011.60 1011.82 1011.95 1012.10 1011.88 1011.88 1011.31 1011.44 1011.85 1011.33 1011.27 1011.32 1010.44 1008.56 1006.97 1004.82 1000.45 1001.67 1001.89 1001.73 1001.61 1001.48 1001.16 1000.90
1018.30 1017.88 1016.27 1016.33 1017.49 1016.39 1015.20 1014.55 1013.74 1013.37 1013.55 1013.84 1013.66 1013.18 1012.97 1012.86 1012.24 1011.76 1011.46 1011.21 1011.19 1011.33 1011.72 1011.78 1011.90 1012.22 1011.87 1010.54 1010.42 1010.17 1009.70 1009.73 1009.82 1008.36 1007.22 1005.63 1003.52 1000.04 1001.82 1001.68 1001.05 1001.02 1001.20 1001.23 1000.76
1018.08 1017.21 1016.55 1016.25 1015.78 1015.36 1014.68 1014.30 1014.03 1013.21 1013.06 1013.57 1013.61 1013.04 1012.78 1012.60 1012.32 1011.70 1010.64 1010.20 1010.93 1011.65 1011.39 1011.48 1011.63 1011.69 1011.81 1011.76 1009.68 1009.75 1008.20 1008.00 1007.55 1007.37 1006.54 1005.26 1002.59 1000.00 1000.85 1000.53 1000.59 1000.58 1000.21 1000.15 1000.02
1018.47 1017.53 1016.51 1016.06 1015.25 1015.14 1014.80 1014.02 1013.74 1013.31 1013.17 1013.66 1013.65 1012.96 1013.53 1012.92 1012.38 1011.28 1010.81 1010.36 1010.53 1010.60 1011.12 1011.25 1011.02 1010.90 1010.35 1009.19 1008.75 1008.31 1007.18 1006.39 1006.49 1005.98 1004.48 1003.65 1002.22 1001.07 999.46 999.38 999.84 1000.02 999.95 1000.04 1000.43
1018.69 1017.50 1016.60 1016.07 1015.25 1015.26 1015.28 1014.70 1014.07 1013.62 1013.72 1013.68 1013.67 1013.52 1013.95 1013.70 1013.02 1012.33 1012.56 1012.28 1012.30 1011.74 1011.70 1011.50 1010.23 1009.89 1009.16 1008.92 1008.44 1007.67 1006.79 1005.80 1005.18 1003.89 1003.70 1002.49 1002.30 1001.85 1000.32 998.98 999.84 1000.00 999.92 1000.44 1000.37
1019.27 1018.27 1017.82 1017.14 1016.39 1016.02 1015.67 1015.17 1014.83 1014.80 1014.75 1014.77 1014.43 1015.36 1015.61 1015.51 1015.77 1015.20 1015.17 1015.14 1014.52 1013.39 1013.47 1013.16 1011.43 1010.65 1008.99 1008.80 1007.95 1006.74 1005.12 1004.31 1003.47 1002.98 1002.20 1002.52 1001.85 1001.35 1000.34 1000.03 999.64 999.35 1000.97 1001.39 1000.61
1019.53 1019.24 1018.93 1017.77 1017.24 1016.87 1016.28 1015.79 1015.71 1016.09 1015.97 1015.94 1016.44 1016.85 1016.48 1016.63 1016.74 1016.81 1016.78 1016.45 1016.23 1015.63 1013.93 1013.90 1012.79 1011.23 1009.05 1009.13 1008.24 1005.71 1004.71 1003.84 1003.41 1003.71 1003.83 1003.28 1002.21 1002.57 1002.50 1002.23 1001.56 1001.80 1003.20 1003.10 1002.85
Thickness
5707 5709 5712 5716 5719 5723 5726 5728 5730 5731 5732 5735 5737 5738 5739 5742 5745 5744 5742 5759 5760 5758 5754 5750 5746 5744 5741 5734 5734 5724 5693 5685 5705 5718 5725 5737 5732 5741 5741 5736 5735 5735 5733 5731 5726
5702 5705 5708 5711 5715 5719 5722 5725 5727 5729 5730 5732 5735 5736 5738 5739 5741 5741 5763 5763 5760 5757 5749 5742 5735 5735 5723 5725 5722 5707 5685 5701 5720 5732 5728 5732 5729 5735 5732 5730 5729 5732 5728 5722 5719
5696 5700 5703 5706 5710 5714 5717 5721 5723 5725 5726 5728 5731 5733 5735 5736 5734 5747 5761 5758 5755 5752 5749 5744 5739 5731 5719 5720 5715 5708 5699 5714 5727 5732 5730 5729 5726 5732 5724 5718 5728 5729 5730 5717 5712
5692 5694 5698 5701 5705 5709 5712 5715 5718 5721 5722 5724 5726 5728 5731 5732 5711 5753 5754 5752 5749 5745 5741 5734 5728 5717 5711 5709 5716 5707 5714 5717 5726 5729 5725 5721 5727 5724 5719 5736 5744 5737 5733 5719 5713
5687 5690 5692 5696 5699 5704 5708 5710 5713 5715 5718 5719 5721 5723 5726 5722 5725 5749 5746 5743 5741 5738 5732 5725 5717 5711 5704 5706 5711 5706 5712 5717 5720 5719 5715 5717 5716 5715 5725 5733 5731 5733 5728 5721 5718
5681 5684 5687 5690 5694 5698 5702 5706 5709 5710 5711 5714 5716 5716 5718 5706 5746 5743 5740 5735 5733 5730 5726 5721 5714 5713 5705 5704 5697 5708 5712 5713 5715 5711 5709 5703 5712 5710 5742 5733 5727 5724 5726 5723 5723
5674 5677 5681 5685 5689 5693 5697 5702 5704 5706 5707 5708 5709 5709 5711 5721 5742 5736 5731 5728 5728 5723 5716 5715 5713 5704 5700 5696 5701 5700 5691 5697 5712 5708 5696 5693 5702 5703 5740 5726 5723 5722 5721 5722 5725
5667 5671 5675 5679 5683 5688 5692 5697 5702 5704 5704 5704 5704 5703 5703 5734 5733 5728 5725 5721 5719 5716 5711 5709 5705 5695 5690 5693 5684 5680 5678 5672 5711 5700 5697 5690 5697 5726 5726 5715 5719 5717 5720 5717 5723
5660 5663 5668 5672 5676 5682 5688 5695 5700 5702 5700 5698 5696 5695 5699 5724 5720 5724 5721 5712 5709 5706 5702 5700 5692 5679 5679 5660 5651 5657 5644 5651 5679 5695 5686 5677 5679 5727 5723 5708 5713 5716 5715 5718 5722
5653 5656 5660 5665 5668 5675 5683 5691 5693 5693 5691 5689 5690 5683 5700 5707 5715 5716 5715 5709 5701 5693 5687 5681 5661 5655 5655 5649 5633 5640 5632 5646 5659 5692 5675 5660 5668 5697 5711 5705 5706 5712 5714 5712 5716
5645 5648 5651 5657 5661 5666 5675 5680 5675 5675 5678 5682 5685 5690 5703 5707 5707 5705 5706 5696 5689 5681 5665 5662 5643 5647 5672 5660 5666 5652 5642 5641 5667 5686 5665 5661 5663 5678 5700 5698 5698 5709 5713 5719 5718
5638 5639 5642 5648 5651 5655 5659 5653 5645 5642 5647 5674 5680 5677 5696 5695 5687 5688 5692 5676 5669 5659 5659 5647 5642 5674 5669 5658 5645 5642 5644 5645 5658 5669 5649 5656 5665 5667 5674 5701 5714 5711 5715 5719 5725
5629 5630 5632 5637 5640 5640 5638 5637 5637 5632 5624 5661 5673 5672 5680 5681 5673 5679 5675 5666 5659 5648 5651 5648 5652 5660 5651 5649 5644 5647 5633 5646 5641 5650 5646 5640 5662 5656 5670 5696 5707 5718 5720 5722 5724
5619 5620 5622 5624 5625 5623 5624 5625 5626 5625 5610 5643 5663 5668 5670 5670 5665 5662 5661 5660 5649 5646 5641 5635 5664 5653 5640 5636 5647 5635 5653 5641 5633 5626 5620 5637 5650 5660 5671 5675 5696 5709 5712 5719 5725
5610 5612 5612 5612 5607 5610 5614 5616 5614 5611 5592 5646 5649 5657 5656 5651 5643 5644 5647 5645 5636 5641 5638 5643 5651 5640 5632 5652 5637 5649 5642 5633 5629 5612 5610 5608 5599 5662 5667 5663 5680 5710 5712 5719 5727
5605 5604 5602 5600 5596 5602 5607 5608 5604 5596 5582 5627 5633 5627 5630 5630 5631 5631 5629 5631 5627 5622 5622 5632 5642 5639 5640 5639 5632 5631 5627 5616 5595 5590 5585 5617 5609 5701 5652 5664 5677 5695 5707 5722 5732
5590 5595 5593 5592 5593 5593 5595 5594 5585 5578 5617 5619 5619 5618 5619 5615 5612 5607 5609 5603 5600 5603 5605 5618 5620 5630 5632 5620 5619 5619 5605 5577 5563 5552 5590 5630 5598 5673 5664 5672 5670 5681 5694 5706 5720
5577 5580 5580 5583 5582 5581 5574 5569 5567 5593 5599 5616 5611 5601 5597 5597 5600 5597 5592 5591 5591 5592 5586 5588 5616 5616 5623 5620 5611 5598 5600 5571 5556 5588 5624 5595 5595 5666 5679 5687 5686 5686 5692 5691 5687
5562 5566 5569 5571 5568 5563 5556 5559 5571 5580 5592 5595 5596 5587 5585 5589 5584 5580 5574 5582 5589 5588 5582 5572 5588 5608 5605 5611 5610 5598 5584 5610 5568 5509 5533 5602 5632 5662 5675 5667 5663 5662 5660 5667 5673
5545 5551 5560 5563 5554 5546 5539 5570 5569 5575 5578 5576 5569 5572 5571 5577 5563 5562 5568 5587 5584 5581 5587 5583 5566 5594 5587 5581 5586 5584 5588 5569 5552 5537 5533 5574 5600 5633 5664 5655 5662 5648 5651 5661 5662
5521 5532 5548 5545 5533 5525 5542 5556 5564 5570 5564 5553 5557 5556 5561 5560 5558 5561 5567 5572 5577 5580 5568 5560 5550 5559 5567 5570 5571 5555 5557 5558 5555 5549 5564 5562 5585 5673 5645 5638 5634 5635 5636 5639 5641
5503 5508 5528 5525 5516 5518 5541 5555 5559 5559 5551 5542 5539 5545 5548 5554 5552 5555 5555 5560 5569 5562 5548 5548 5527 5516 5541 5569 5562 5559 5560 5560 5549 5558 5549 5562 5568 5660 5632 5625 5632 5627 5624 5623 5634
5490 5497 5503 5503 5509 5518 5528 5529 5528 5544 5541 5524 5518 5525 5535 5529 5520 5534 5547 5565 5554 5543 5535 5530 5508 5513 5500 5515 5556 5542 5568 5560 5558 5549 5541 5537 5561 5642 5627 5625 5623 5616 5626 5625 5624
5467 5472 5487 5485 5500 5496 5505 5513 5511 5520 5516 5511 5502 5509 5504 5506 5520 5516 5524 5540 5540 5535 5531 5522 5513 5505 5510 5537 5543 5535 5551 5556 5550 5534 5546 5543 5557 5598 5625 5621 5620 5615 5613 5610 5607
5443 5454 5462 5472 5484 5481 5479 5485 5489 5497 5496 5499 5491 5493 5486 5485 5489 5494 5488 5486 5497 5505 5503 5506 5501 5499 5503 5517 5525 5525 5535 5547 5541 5549 5531 5548 5539 5561 5590 5612 5601 5598 5597 5585 5581
5416 5427 5432 5438 5443 5448 5453 5460 5463 5462 5461 5464 5468 5438 5438 5441 5437 5441 5439 5446 5451 5463 5461 5457 5475 5472 5483 5486 5492 5500 5524 5534 5541 5544 5541 5534 5527 5555 5565 5571 5578 5586 5567 5554 5561
5391 5395 5398 5417 5416 5419 5427 5439 5438 5422 5429 5431 5419 5408 5412 5411 5405 5406 5410 5416 5415 5420 5439 5434 5438 5448 5456 5475 5470 5482 5500 5521 5523 5524 5518 5509 5528 5526 5521 5528 5540 5540 5507 5502 5504